Track LEMUR 2 JOHN-TREIRES now! 10-day predictions LEMUR 2 JOHN-TREIRES is classified as:
1 48925U 21059AY 22142.86715726 .00021843 00000-0 10752-2 0 9993 2 48925 97.5490 273.3719 0014523 178.6543 181.4732 15.17910742 50115